Regional Weather Roundup
Issued by NWS

Home | Current Version | Previous Version | Graphics & Text | Print | Product List | Glossary On
Versions: 1 2 3 4 5 6 7 8 9 10 11 12 13 14 15 16 17 18 19 20 21 22 23 24 25 26 27 28 29 30 31 32 33 34 35 36 37 38 39 40 41 42 43 44 45 46 47 48 49 50
000
ASUS45 KSLC 291410
RWRUT

UTAH REGIONAL WEATHER ROUNDUP
NATIONAL WEATHER SERVICE SALT LAKE CITY UT
800 AM MDT MON AUG 29 2016

UTZ001>011-023>025-291500-

NORTHERN UTAH

CITY           SKY/WX    TMP DP  RH WIND       PRES   REMARKS
BRIGHAM CITY     N/A     56  37  50 N6        30.23S
HILL AFB       SUNNY     60  33  36 SE22      30.25R
LOGAN          SUNNY     50  42  74 CALM      30.28R
OGDEN          SUNNY     63  34  33 S8        30.23R
PROVO AIRPORT  SUNNY     59  36  41 CALM      30.26R
SALT LAKE CITY MOSUNNY   66  40  38 SE6       30.22R
VERNAL         SUNNY     57  44  62 CALM      30.31R
WENDOVER       MOSUNNY   63  30  29 CALM      30.23R
HEBER CITY     SUNNY     46  36  66 CALM      30.35R
WEST JORDAN    SUNNY     63  36  36 CALM      30.25R

$$

UTZ012>022-026-027-291500-

SOUTHERN/CENTRAL UTAH

CITY           SKY/WX    TMP DP  RH WIND       PRES   REMARKS
BLANDING       MOSUNNY   61  43  51 CALM      30.40R
BRYCE CANYON   MOSUNNY   45  40  82 W7        30.43R
CEDAR CITY     SUNNY     53  41  63 N5        30.30R
MILFORD        SUNNY     54  38  54 S5        30.27R
MOAB/CYNLANDS  SUNNY     67  44  43 E10       30.24R
PRICE          SUNNY     63  36  36 CALM      30.30S
ST GEORGE      SUNNY     66  54  63 CALM      30.15R

$$

REGIONAL REPORTS     COLORADO/ARIZONA

CITY           SKY/WX    TMP DP  RH WIND       PRES   REMARKS
CRAIG, CO      CLOUDY    49  38  65 CALM      30.38R
GRAND JUNCTION MOSUNNY   63  46  54 S6        30.28R
RIFLE          CLOUDY    52  48  86 CALM      30.35R
MONTROSE       CLOUDY    53  45  74 CALM      30.36R
CORTEZ         SUNNY     51  45  79 E3        30.33S
PAGE, AZ       SUNNY     67  48  50 SE6       30.20R
GRAND CANYON   SUNNY     50  45  83 CALM      30.35R
KINGMAN        CLEAR     65  55  70 E5        30.13R
FLAGSTAFF      SUNNY     46  44  93 CALM      30.36R

$$

REGIONAL REPORTS    NEVADA/IDAHO/WYOMING

CITY           SKY/WX    TMP DP  RH WIND       PRES   REMARKS
LAS VEGAS, NV  CLEAR     79  46  31 CALM      30.02R
ELY            PTCLDY    46  29  51 S9        30.37R
ELKO           PTCLDY    50  30  46 E5        30.28R
POCATELLO, ID  SUNNY     49  38  65 CALM      30.27R
BURLEY         SUNNY     50  43  77 CALM      30.21R
EVANSTON, WY   CLOUDY    57  29  34 CALM      30.43R
ROCK SPRINGS   CLOUDY    56  26  31 NE3       30.41R

$$



USA.gov is the U.S. government's official web portal to all federal, state and local government web resources and services.